[[{"header":{"parameterUnit":"m.s-1","parameterCategory":1,"la1":30.2991,"la2":30.254,"lo1":-89.0895,"lo2":-89.0444,"dy":0.0017,"dx":0.0017,"nx":28,"ny":28,"refTime":"2023-03-16T21:00:00:Z","depth":0,"parameterNumber":2,"parameterNumberName":"U-component_of_WINDS"},"data":[0,0,0,0,0,0,0,0,0,0,0,0,0,0,0,0,0,0,0,0,0,0,0,0,0,0,0,0,0,0,0,0,0,0,0,0,0,0,0,0,0,0,0,0,0,0,0,0,0,0,0,0,0,0,0,0,0,0,-1.5174,-1.5174,0,-1.5174,-1.5174,-1.5174,-1.5164,-1.5163,-1.5163,-1.5163,-1.5163,-1.5163,-1.5163,0,0,0,0,0,0,0,0,0,0,0,0,0,-1.5166,-1.5167,-1.5174,-1.5174,-1.5174,-1.5174,-1.5174,-1.5174,-1.5164,-1.5163,-1.5163,-1.5163,-1.5163,-1.5163,-1.5163,0,0,0,0,0,0,0,0,0,0,0,0,0,-1.5168,-1.5167,-1.5174,-1.5169,-1.5169,-1.5174,-1.5174,-1.5174,-1.5164,-1.5163,-1.5163,-1.5163,-1.5163,-1.5163,-1.5163,-1.5174,0,0,-1.5165,-1.5165,0,0,0,0,0,0,0,0,-1.5168,-1.5169,-1.517,-1.5169,-1.5169,-1.5168,-1.5171,-1.5174,-1.5164,-1.5166,-1.5163,-1.5162,-1.5165,-1.5165,-1.5166,-1.5174,-1.5174,-1.5165,-1.5165,-1.5165,-1.5165,0,0,0,0,0,0,0,-1.5168,-1.5169,-1.5174,-1.517,-1.5169,-1.5167,-1.5167,-1.5172,-1.5168,-1.5165,-1.5165,-1.5165,-1.5165,-1.5166,-1.5166,-1.5174,-1.5165,-1.5165,-1.5165,-1.5165,-1.5191,-1.5192,0,0,0,0,0,0,-1.5169,-1.5169,-1.5174,-1.5174,-1.5168,-1.5167,-1.5167,-1.5169,-1.5168,-1.5167,-1.5165,-1.5164,-1.5165,-1.5166,-1.5166,-1.5179,-1.5165,-1.5165,-1.5166,-1.5191,-1.5191,-1.5192,0,0,0,0,0,0,-1.5169,-1.5169,-1.5174,-1.5171,-1.5172,-1.5168,-1.517,-1.5169,-1.517,-1.5167,-1.5167,-1.5167,-1.5165,-1.5165,-1.5172,-1.5178,-1.5166,-1.5166,-1.519,-1.5191,-1.5192,-1.5204,0,0,0,0,0,0,-1.5168,-1.5169,-1.5173,-1.5171,-1.5172,-1.518,-1.517,-1.517,-1.5171,-1.517,-1.5169,-1.5168,-1.5165,-1.5172,-1.5173,-1.5179,-1.5166,-1.519,-1.519,-1.5191,-1.5203,-1.5205,-1.5206,0,0,0,0,0,-1.5168,-1.5177,-1.5173,-1.5174,-1.5177,-1.5181,-1.5181,-1.5177,-1.5171,-1.5175,-1.5174,-1.5168,-1.5178,-1.5172,-1.5173,-1.518,-1.5189,-1.519,-1.5191,-1.5202,-1.5204,-1.5206,0,0,0,0,0,0,-1.5179,-1.5176,-1.5173,-1.5181,-1.5181,-1.5179,-1.5184,-1.5179,-1.5181,-1.518,-1.5175,-1.5175,-1.5182,-1.5182,-1.5176,-1.519,-1.5182,-1.5184,-1.519,-1.5192,-1.5194,-1.5194,-1.5167,0,0,0,0,0,-1.5182,-1.5186,-1.5183,-1.5191,-1.5191,-1.5187,-1.5189,-1.5186,-1.5186,-1.5186,-1.5185,-1.5185,-1.5188,-1.519,-1.5193,-1.5202,-1.5202,-1.5207,-1.5209,-1.5211,-1.5212,-1.5217,-1.5219,-1.5195,-1.5195,-1.5195,0,0,-1.5189,-1.5188,-1.5191,-1.5193,-1.5193,-1.5197,-1.5187,-1.5192,-1.5195,-1.5187,-1.5193,-1.5192,-1.5192,-1.5201,-1.5204,-1.52,-1.5218,-1.5212,-1.5213,-1.5213,-1.5218,-1.5221,-1.5223,-1.5196,-1.5196,-1.5196,0,0,-1.5204,-1.5204,-1.521,-1.521,-1.521,-1.5207,-1.5209,-1.5207,-1.5206,-1.5213,-1.5207,-1.521,-1.5216,-1.5216,-1.5217,-1.5232,-1.5228,-1.5233,-1.5243,-1.5248,-1.525,-1.5252,-1.5257,-1.5259,-1.5235,-1.5235,-1.5235,0,-1.5213,-1.5218,-1.5214,-1.5218,-1.522,-1.5212,-1.5219,-1.5219,-1.522,-1.5221,-1.5217,-1.5223,-1.5223,-1.5231,-1.5235,-1.5236,-1.5238,-1.5233,-1.525,-1.5252,-1.5253,-1.5258,-1.5261,-1.5235,-1.5235,-1.5235,-1.5235,0,-1.5229,-1.5233,-1.5238,-1.5239,-1.5241,-1.5247,-1.5243,-1.5245,-1.5242,-1.524,-1.5247,-1.5246,-1.5248,-1.525,-1.5247,-1.5258,-1.5256,-1.5251,-1.5243,-1.5256,-1.5261,-1.5263,-1.5236,-1.5236,-1.5236,-1.5236,0,0,-1.5251,-1.5249,-1.5251,-1.5252,-1.5251,-1.5254,-1.5259,-1.5262,-1.5264,-1.5265,-1.527,-1.5274,-1.527,-1.5271,-1.5268,-1.5272,-1.5285,-1.5267,-1.5267,-1.527,-1.5297,-1.5301,-1.5304,-1.5282,-1.5282,-1.5282,-1.5297,0,-1.5265,-1.5274,-1.527,-1.528,-1.5283,-1.5277,-1.5282,-1.5282,-1.528,-1.5283,-1.5282,-1.5285,-1.5279,-1.528,-1.5284,-1.5282,-1.529,-1.5281,-1.5286,-1.5286,-1.5286,-1.5306,-1.531,-1.5324,-1.5299,-1.53,-1.53,0,-1.5283,-1.5285,-1.5295,-1.5294,-1.5295,-1.53,-1.5301,-1.5304,-1.5305,-1.5303,-1.5305,-1.5301,-1.5306,-1.5298,-1.5306,-1.53,-1.5302,-1.5302,-1.5302,-1.5302,-1.5294,-1.5307,-1.5329,-1.5331,-1.5303,-1.5303,-1.5302,0,-1.5299,-1.5303,-1.531,-1.531,-1.5309,-1.5312,-1.5312,-1.5312,-1.5314,-1.5315,-1.5317,-1.5319,-1.532,-1.5323,-1.5319,-1.5314,-1.5328,-1.532,-1.5327,-1.5327,-1.533,-1.533,-1.5352,-1.5331,-1.5331,-1.5331,-1.5331,0,-1.5315,-1.5322,-1.5316,-1.5321,-1.5328,-1.5323,-1.533,-1.5329,-1.5329,-1.5333,-1.5327,-1.5331,-1.5326,-1.533,-1.5327,-1.5334,-1.5335,-1.5334,-1.5333,-1.5335,-1.5335,-1.5336,-1.5335,-1.5331,-1.5331,-1.5331,-1.5331,0,-1.5334,-1.533,-1.5337,-1.5335,-1.5335,-1.534,-1.5339,-1.5343,-1.5341,-1.5346,-1.5347,-1.5344,-1.5348,-1.5345,-1.5348,-1.5347,-1.5356,-1.5354,-1.5356,-1.5355,-1.5362,-1.5362,-1.5386,-1.539,-1.5366,-1.5366,-1.5366,0,-1.5345,-1.5349,-1.5348,-1.535,-1.535,-1.5354,-1.5355,-1.5351,-1.5353,-1.5354,-1.5358,-1.5361,-1.5363,-1.537,-1.5368,-1.5371,-1.5369,-1.5377,-1.5369,-1.537,-1.5369,-1.5369,-1.537,-1.5379,-1.5379,-1.5379,-1.538,0,-1.5365,-1.5363,-1.5365,-1.5367,-1.537,-1.5371,-1.5372,-1.5374,-1.537,-1.5372,-1.5376,-1.5378,-1.5382,-1.5385,-1.5387,-1.5387,-1.5383,-1.5382,-1.5384,-1.5385,-1.5387,-1.5386,-1.536,-1.5382,-1.5381,-1.5381,-1.5381,-1.5381,-1.538,-1.5384,-1.5384,-1.5387,-1.5387,-1.5388,-1.5391,-1.539,-1.5393,-1.5395,-1.5393,-1.5397,-1.5397,-1.54,-1.5401,-1.5404,-1.5401,-1.5403,-1.5404,-1.5405,-1.5406,-1.5386,-1.5405,-1.5404,-1.5404,-1.5404,-1.5404,0,-1.54,-1.5399,-1.5402,-1.5404,-1.5406,-1.5402,-1.5402,-1.5405,-1.5409,-1.5409,-1.5412,-1.5416,-1.5419,-1.5418,-1.5421,-1.5424,-1.5422,-1.5425,-1.5425,-1.5425,-1.5409,-1.5407,-1.5426,-1.5426,-1.5426,-1.5426,-1.5426,-1.5426,-1.5411,-1.5417,-1.5415,-1.5422,-1.5421,-1.5426,-1.5427,-1.5428,-1.5428,-1.5433,-1.5435,-1.5434,-1.5434,-1.5437,-1.544,-1.5439,-1.5441,-1.5444,-1.5443,-1.5428,-1.5426,-1.5424,-1.5422,-1.5445,-1.5445,-1.5459,-1.5459,-1.5459]},{"header":{"parameterUnit":"m.s-1","parameterCategory":1,"la1":30.2991,"la2":30.254,"lo1":-89.0895,"lo2":-89.0444,"dy":0.0017,"dx":0.0017,"nx":28,"ny":28,"refTime":"2023-03-16T21:00:00:Z","depth":0,"parameterNumber":3,"parameterNumberName":"V-component_of_WINDS"},"data":[0,0,0,0,0,0,0,0,0,0,0,0,0,0,0,0,0,0,0,0,0,0,0,0,0,0,0,0,0,0,0,0,0,0,0,0,0,0,0,0,0,0,0,0,0,0,0,0,0,0,0,0,0,0,0,0,0,0,7.2529,7.2531,0,7.2694,7.2696,7.2698,7.269,7.2688,7.2686,7.2683,7.285,7.2856,7.2863,0,0,0,0,0,0,0,0,0,0,0,0,0,7.2203,7.2209,7.2529,7.2531,7.2533,7.2694,7.2696,7.2699,7.2691,7.2688,7.2685,7.2682,7.2848,7.2856,7.2864,0,0,0,0,0,0,0,0,0,0,0,0,0,7.2354,7.2211,7.2529,7.2549,7.2552,7.2694,7.2696,7.2699,7.2691,7.2688,7.2684,7.2681,7.2845,7.2855,7.2865,7.2997,0,0,7.2895,7.2899,0,0,0,0,0,0,0,0,7.2345,7.2366,7.2544,7.2548,7.2552,7.2668,7.2643,7.2799,7.2692,7.2638,7.2683,7.2679,7.2792,7.2806,7.2845,7.3004,7.3011,7.2896,7.2902,7.2906,7.2909,0,0,0,0,0,0,0,7.2335,7.2359,7.2594,7.2546,7.2551,7.2548,7.2566,7.2672,7.2733,7.2643,7.2643,7.2662,7.2794,7.2835,7.2849,7.3014,7.2896,7.2905,7.2911,7.2915,7.3288,7.3292,0,0,0,0,0,0,7.2321,7.235,7.2589,7.2599,7.2438,7.2557,7.2577,7.2634,7.2732,7.2743,7.2665,7.2661,7.282,7.2837,7.2855,7.3015,7.2906,7.2915,7.2921,7.3284,7.3289,7.3293,0,0,0,0,0,0,7.2314,7.2342,7.2583,7.2475,7.2505,7.2566,7.2631,7.2639,7.2681,7.2749,7.2759,7.2697,7.2818,7.2841,7.2961,7.302,7.292,7.2929,7.328,7.3286,7.3291,7.3336,0,0,0,0,0,0,7.2304,7.234,7.2391,7.2476,7.2511,7.2688,7.2635,7.2645,7.2699,7.2695,7.2781,7.2792,7.2817,7.2946,7.2971,7.3032,7.2937,7.3275,7.3282,7.3289,7.333,7.3343,7.3354,0,0,0,0,0,7.2293,7.2397,7.2394,7.2423,7.2577,7.2691,7.2711,7.2738,7.2703,7.2755,7.2798,7.2789,7.301,7.2959,7.2986,7.3052,7.3271,7.328,7.3289,7.3324,7.334,7.3354,0,0,0,0,0,0,7.2317,7.2409,7.2406,7.2541,7.2609,7.2689,7.2756,7.2754,7.2832,7.2826,7.2855,7.2875,7.2995,7.3035,7.2977,7.3183,7.3136,7.3151,7.3153,7.3169,7.3181,7.3169,7.2945,0,0,0,0,0,7.2339,7.2424,7.2499,7.2611,7.2645,7.2695,7.2745,7.276,7.2831,7.2859,7.2911,7.2979,7.3063,7.3118,7.32,7.3335,7.3353,7.3393,7.3406,7.3415,7.3428,7.3501,7.352,7.3323,7.3323,7.3322,0,0,7.2383,7.2444,7.2496,7.2618,7.2671,7.2758,7.2719,7.2813,7.2877,7.2873,7.299,7.303,7.3108,7.3236,7.3295,7.3273,7.3486,7.3427,7.3434,7.3441,7.3512,7.3531,7.3547,7.3329,7.3328,7.3327,0,0,7.2509,7.2564,7.2663,7.2717,7.2799,7.2831,7.2855,7.2936,7.2963,7.3081,7.3079,7.3156,7.3301,7.3356,7.3403,7.3548,7.3542,7.3573,7.3638,7.3709,7.3724,7.3738,7.3789,7.3807,7.3586,7.3586,7.3586,0,7.2554,7.2687,7.2714,7.2808,7.2861,7.2861,7.2961,7.3012,7.3116,7.3152,7.3126,7.3308,7.336,7.35,7.3536,7.3574,7.3601,7.3564,7.372,7.3734,7.3748,7.3797,7.3816,7.3589,7.3589,7.3588,7.3588,0,7.2737,7.2829,7.2898,7.2999,7.306,7.3157,7.3197,7.3255,7.3264,7.3298,7.3418,7.348,7.3574,7.3608,7.3618,7.375,7.3734,7.3714,7.3666,7.3769,7.3816,7.3835,7.3594,7.3592,7.3591,7.3591,0,0,7.2885,7.2998,7.3024,7.3069,7.3158,7.3229,7.3325,7.3417,7.3465,7.3537,7.3617,7.3739,7.3721,7.3774,7.379,7.3852,7.3962,7.3824,7.3827,7.3847,7.411,7.4125,7.4146,7.3959,7.3962,7.3965,7.4104,0,7.302,7.3191,7.3217,7.3367,7.3451,7.3451,7.3534,7.3598,7.3632,7.3707,7.3744,7.3831,7.38,7.3832,7.3894,7.3936,7.4015,7.3926,7.4033,7.4037,7.4014,7.4171,7.4187,7.4315,7.4122,7.4125,7.4128,0,7.3201,7.3277,7.3435,7.3512,7.3548,7.3623,7.3708,7.3781,7.3852,7.3872,7.3931,7.3939,7.4037,7.3985,7.412,7.4059,7.4104,7.4131,7.4136,7.4147,7.4088,7.4186,7.4356,7.4375,7.4157,7.4154,7.4152,0,7.3292,7.3434,7.3547,7.3585,7.3678,7.373,7.3771,7.3838,7.3892,7.3966,7.4001,7.4085,7.4132,7.4197,7.4227,7.4186,7.4359,7.431,7.4378,7.4378,7.4415,7.4412,7.4595,7.4444,7.4444,7.4444,7.4443,0,7.344,7.3537,7.3589,7.3658,7.3766,7.3794,7.39,7.3939,7.3999,7.4075,7.408,7.4151,7.4187,7.4263,7.4287,7.4394,7.4415,7.4434,7.4439,7.4434,7.4431,7.4464,7.4456,7.4449,7.4448,7.4447,7.4446,0,7.356,7.3599,7.3722,7.3799,7.3821,7.3897,7.3962,7.4029,7.4062,7.4158,7.4182,7.4234,7.4324,7.436,7.447,7.4486,7.461,7.4608,7.4586,7.4588,7.4654,7.4647,7.4864,7.4893,7.4723,7.4724,7.4726,0,7.3653,7.3727,7.3812,7.3863,7.3906,7.3989,7.4043,7.4073,7.4129,7.4214,7.4271,7.436,7.4434,7.4577,7.4624,7.4708,7.4708,7.4778,7.4721,7.4712,7.4709,7.4704,7.4711,7.4789,7.479,7.4792,7.4793,0,7.3812,7.3827,7.3905,7.399,7.4054,7.4122,7.4189,7.423,7.427,7.4332,7.4424,7.4481,7.4593,7.4682,7.4768,7.4809,7.4808,7.481,7.4831,7.4826,7.481,7.4819,7.4615,7.4806,7.4804,7.4803,7.4803,7.4802,7.3921,7.3987,7.4056,7.4143,7.4196,7.4257,7.4323,7.4364,7.4441,7.4535,7.4548,7.4646,7.4713,7.4829,7.4873,7.495,7.4932,7.4961,7.4969,7.4975,7.498,7.4797,7.4966,7.4965,7.4965,7.4965,7.4965,0,7.4081,7.4125,7.4204,7.4296,7.4364,7.4356,7.4429,7.4486,7.4572,7.4635,7.4707,7.4812,7.4898,7.4951,7.5037,7.5088,7.5089,7.5109,7.5106,7.5115,7.4991,7.4965,7.5107,7.5107,7.5107,7.5107,7.5107,7.5107,7.4172,7.4282,7.4305,7.4441,7.4484,7.4581,7.4622,7.4679,7.4729,7.4846,7.4917,7.4951,7.501,7.51,7.5178,7.5191,7.5222,7.5244,7.5256,7.5139,7.5124,7.511,7.5086,7.5251,7.5251,7.5374,7.5375,7.5376]}]]